station,date_time,longitude_east,latitude_north,depth,sw_sal,sw_sal_result_value_qualifier,sea_water_temperature,sea_water_temperature_result_value_qualifier,sea_water_pressure,sea_water_pressure_result_value_qualifier,KD_PAR,KD_PAR_result_value_qualifier
CH4-6,2019-01-02T20:00:00Z,-79.18,54.09,1.70,8.54,,-0.69,,, NC,, NC
CH4-6,2019-01-02T20:10:00Z,-79.18,54.09,1.70,8.49,,-0.69,,, NC,, NC
CH4-6,2019-01-02T20:20:00Z,-79.18,54.09,1.70,8.46,,-0.70,,, NC,, NC
CH4-6,2019-01-02T20:30:00Z,-79.18,54.09,1.70,8.46,,-0.70,,, NC,, NC
CH4-6,2019-01-02T20:40:00Z,-79.18,54.09,1.70,8.46,,-0.69,,, NC,, NC
CH4-6,2019-01-02T20:50:00Z,-79.18,54.09,1.70,8.53,,-0.69,,, NC,, NC
CH4-6,2019-01-02T21:00:00Z,-79.18,54.09,1.70,8.45,,-0.70,,, NC,, NC
CH4-6,2019-01-02T21:10:00Z,-79.18,54.09,1.70,8.46,,-0.70,,, NC,, NC
CH4-6,2019-01-02T21:20:00Z,-79.18,54.09,1.70,8.48,,-0.70,,, NC,, NC
CH4-6,2019-01-02T21:30:00Z,-79.18,54.09,1.70,8.49,,-0.70,,, NC,, NC
CH4-6,2019-01-02T21:40:00Z,-79.18,54.09,1.70,8.53,,-0.69,,, NC,, NC
CH4-6,2019-01-02T21:50:00Z,-79.18,54.09,1.70,8.55,,-0.69,,, NC,, NC
CH4-6,2019-01-02T22:00:00Z,-79.18,54.09,1.70,8.63,,-0.69,,, NC,, NC
CH4-6,2019-01-02T22:10:00Z,-79.18,54.09,1.70,8.67,,-0.70,,, NC,, NC
CH4-6,2019-01-02T22:20:00Z,-79.18,54.09,1.70,8.69,,-0.69,,, NC,, NC
CH4-6,2019-01-02T22:30:00Z,-79.18,54.09,1.70,8.70,,-0.69,,, NC,, NC
CH4-6,2019-01-02T22:40:00Z,-79.18,54.09,1.70,8.70,,-0.70,,, NC,, NC
CH4-6,2019-01-02T22:50:00Z,-79.18,54.09,1.70,8.71,,-0.69,,, NC,, NC
CH4-6,2019-01-02T23:00:00Z,-79.18,54.09,1.70,8.70,,-0.70,,, NC,, NC
CH4-6,2019-01-02T23:10:00Z,-79.18,54.09,1.70,8.70,,-0.70,,, NC,, NC
CH4-6,2019-01-02T23:20:00Z,-79.18,54.09,1.70,8.69,,-0.70,,, NC,, NC
CH4-6,2019-01-02T23:30:00Z,-79.18,54.09,1.70,8.69,,-0.70,,, NC,, NC
CH4-6,2019-01-02T23:40:00Z,-79.18,54.09,1.70,8.69,,-0.69,,, NC,, NC
CH4-6,2019-01-02T23:50:00Z,-79.18,54.09,1.70,8.70,,-0.70,,, NC,, NC
CH4-6,2019-01-03T00:00:00Z,-79.18,54.09,1.70,8.68,,-0.69,,, NC,, NC
CH4-6,2019-01-03T00:10:00Z,-79.18,54.09,1.70,8.70,,-0.70,,, NC,, NC
CH4-6,2019-01-03T00:20:00Z,-79.18,54.09,1.70,8.70,,-0.70,,, NC,, NC
CH4-6,2019-01-03T00:30:00Z,-79.18,54.09,1.70,8.69,,-0.69,,, NC,, NC
CH4-6,2019-01-03T00:40:00Z,-79.18,54.09,1.70,8.69,,-0.70,,, NC,, NC
CH4-6,2019-01-03T00:50:00Z,-79.18,54.09,1.70,8.67,,-0.69,,, NC,, NC
CH4-6,2019-01-03T01:00:00Z,-79.18,54.09,1.70,8.65,,-0.70,,, NC,, NC
CH4-6,2019-01-03T01:10:00Z,-79.18,54.09,1.70,8.67,,-0.70,,, NC,, NC
CH4-6,2019-01-03T01:20:00Z,-79.18,54.09,1.70,8.70,,-0.70,,, NC,, NC
CH4-6,2019-01-03T01:30:00Z,-79.18,54.09,1.70,8.70,,-0.70,,, NC,, NC
CH4-6,2019-01-03T01:40:00Z,-79.18,54.09,1.70,8.69,,-0.70,,, NC,, NC
CH4-6,2019-01-03T01:50:00Z,-79.18,54.09,1.70,8.67,,-0.70,,, NC,, NC
CH4-6,2019-01-03T02:00:00Z,-79.18,54.09,1.70,8.68,,-0.70,,, NC,, NC
CH4-6,2019-01-03T02:10:00Z,-79.18,54.09,1.70,8.68,,-0.70,,, NC,, NC
CH4-6,2019-01-03T02:20:00Z,-79.18,54.09,1.70,8.69,,-0.70,,, NC,, NC
CH4-6,2019-01-03T02:30:00Z,-79.18,54.09,1.70,8.69,,-0.70,,, NC,, NC
CH4-6,2019-01-03T02:40:00Z,-79.18,54.09,1.70,8.68,,-0.70,,, NC,, NC
CH4-6,2019-01-03T02:50:00Z,-79.18,54.09,1.70,8.71,,-0.70,,, NC,, NC
CH4-6,2019-01-03T03:00:00Z,-79.18,54.09,1.70,8.71,,-0.70,,, NC,, NC
CH4-6,2019-01-03T03:10:00Z,-79.18,54.09,1.70,8.69,,-0.70,,, NC,, NC
CH4-6,2019-01-03T03:20:00Z,-79.18,54.09,1.70,8.66,,-0.70,,, NC,, NC
CH4-6,2019-01-03T03:30:00Z,-79.18,54.09,1.70,8.65,,-0.70,,, NC,, NC
CH4-6,2019-01-03T03:40:00Z,-79.18,54.09,1.70,8.63,,-0.70,,, NC,, NC
CH4-6,2019-01-03T03:50:00Z,-79.18,54.09,1.70,8.63,,-0.71,,, NC,, NC
CH4-6,2019-01-03T04:00:00Z,-79.18,54.09,1.70,8.63,,-0.71,,, NC,, NC
CH4-6,2019-01-03T04:10:00Z,-79.18,54.09,1.70,8.40,,-0.70,,, NC,, NC
CH4-6,2019-01-03T04:20:00Z,-79.18,54.09,1.70,8.49,,-0.70,,, NC,, NC
CH4-6,2019-01-03T04:30:00Z,-79.18,54.09,1.70,8.30,,-0.69,,, NC,, NC
CH4-6,2019-01-03T04:40:00Z,-79.18,54.09,1.70,8.40,,-0.69,,, NC,, NC
CH4-6,2019-01-03T04:50:00Z,-79.18,54.09,1.70,8.44,,-0.69,,, NC,, NC
CH4-6,2019-01-03T05:00:00Z,-79.18,54.09,1.70,8.46,,-0.68,,, NC,, NC
CH4-6,2019-01-03T05:10:00Z,-79.18,54.09,1.70,8.49,,-0.69,,, NC,, NC
CH4-6,2019-01-03T05:20:00Z,-79.18,54.09,1.70,8.54,,-0.69,,, NC,, NC
CH4-6,2019-01-03T05:30:00Z,-79.18,54.09,1.70,8.53,,-0.68,,, NC,, NC
CH4-6,2019-01-03T05:40:00Z,-79.18,54.09,1.70,8.64,,-0.69,,, NC,, NC
CH4-6,2019-01-03T05:50:00Z,-79.18,54.09,1.70,8.62,,-0.68,,, NC,, NC
CH4-6,2019-01-03T06:00:00Z,-79.18,54.09,1.70,8.55,,-0.68,,, NC,, NC
CH4-6,2019-01-03T06:10:00Z,-79.18,54.09,1.70,8.61,,-0.69,,, NC,, NC
CH4-6,2019-01-03T06:20:00Z,-79.18,54.09,1.70,8.58,,-0.69,,, NC,, NC
CH4-6,2019-01-03T06:30:00Z,-79.18,54.09,1.70,8.55,,-0.69,,, NC,, NC
CH4-6,2019-01-03T06:40:00Z,-79.18,54.09,1.70,8.54,,-0.69,,, NC,, NC
CH4-6,2019-01-03T06:50:00Z,-79.18,54.09,1.70,8.56,,-0.70,,, NC,, NC
CH4-6,2019-01-03T07:00:00Z,-79.18,54.09,1.70,8.56,,-0.70,,, NC,, NC
CH4-6,2019-01-03T07:10:00Z,-79.18,54.09,1.70,8.57,,-0.69,,, NC,, NC
CH4-6,2019-01-03T07:20:00Z,-79.18,54.09,1.70,8.54,,-0.69,,, NC,, NC
CH4-6,2019-01-03T07:30:00Z,-79.18,54.09,1.70,8.55,,-0.70,,, NC,, NC
CH4-6,2019-01-03T07:40:00Z,-79.18,54.09,1.70,8.56,,-0.70,,, NC,, NC
CH4-6,2019-01-03T07:50:00Z,-79.18,54.09,1.70,8.58,,-0.69,,, NC,, NC
CH4-6,2019-01-03T08:00:00Z,-79.18,54.09,1.70,8.56,,-0.70,,, NC,, NC
CH4-6,2019-01-03T08:10:00Z,-79.18,54.09,1.70,8.54,,-0.69,,, NC,, NC
CH4-6,2019-01-03T08:20:00Z,-79.18,54.09,1.70,8.54,,-0.70,,, NC,, NC
CH4-6,2019-01-03T08:30:00Z,-79.18,54.09,1.70,8.54,,-0.69,,, NC,, NC
CH4-6,2019-01-03T08:40:00Z,-79.18,54.09,1.70,8.56,,-0.70,,, NC,, NC
CH4-6,2019-01-03T08:50:00Z,-79.18,54.09,1.70,8.58,,-0.69,,, NC,, NC
CH4-6,2019-01-03T09:00:00Z,-79.18,54.09,1.70,8.57,,-0.69,,, NC,, NC
CH4-6,2019-01-03T09:10:00Z,-79.18,54.09,1.70,8.57,,-0.69,,, NC,, NC
CH4-6,2019-01-03T09:20:00Z,-79.18,54.09,1.70,8.54,,-0.69,,, NC,, NC
CH4-6,2019-01-03T09:30:00Z,-79.18,54.09,1.70,8.53,,-0.70,,, NC,, NC
CH4-6,2019-01-03T09:40:00Z,-79.18,54.09,1.70,8.50,,-0.68,,, NC,, NC
CH4-6,2019-01-03T09:50:00Z,-79.18,54.09,1.70,8.49,,-0.69,,, NC,, NC
CH4-6,2019-01-03T10:00:00Z,-79.18,54.09,1.70,8.54,,-0.69,,, NC,, NC
CH4-6,2019-01-03T10:10:00Z,-79.18,54.09,1.70,8.57,,-0.69,,, NC,, NC
CH4-6,2019-01-03T10:20:00Z,-79.18,54.09,1.70,8.58,,-0.69,,, NC,, NC
CH4-6,2019-01-03T10:30:00Z,-79.18,54.09,1.70,8.57,,-0.69,,, NC,, NC
CH4-6,2019-01-03T10:40:00Z,-79.18,54.09,1.70,8.53,,-0.69,,, NC,, NC
CH4-6,2019-01-03T10:50:00Z,-79.18,54.09,1.70,8.52,,-0.68,,, NC,, NC
CH4-6,2019-01-03T11:00:00Z,-79.18,54.09,1.70,8.50,,-0.69,,, NC,, NC
CH4-6,2019-01-03T11:10:00Z,-79.18,54.09,1.70,8.53,,-0.68,,, NC,, NC
CH4-6,2019-01-03T11:20:00Z,-79.18,54.09,1.70,8.53,,-0.69,,, NC,, NC
CH4-6,2019-01-03T11:30:00Z,-79.18,54.09,1.70,8.54,,-0.69,,, NC,, NC
CH4-6,2019-01-03T11:40:00Z,-79.18,54.09,1.70,8.60,,-0.70,,, NC,, NC
CH4-6,2019-01-03T11:50:00Z,-79.18,54.09,1.70,8.59,,-0.69,,, NC,, NC
CH4-6,2019-01-03T12:00:00Z,-79.18,54.09,1.70,8.60,,-0.69,,, NC,, NC
CH4-6,2019-01-03T12:10:00Z,-79.18,54.09,1.70,8.61,,-0.69,,, NC,, NC
CH4-6,2019-01-03T12:20:00Z,-79.18,54.09,1.70,8.62,,-0.69,,, NC,, NC
CH4-6,2019-01-03T12:30:00Z,-79.18,54.09,1.70,8.62,,-0.69,,, NC,, NC
CH4-6,2019-01-03T12:40:00Z,-79.18,54.09,1.70,8.63,,-0.69,,, NC,, NC
CH4-6,2019-01-03T12:50:00Z,-79.18,54.09,1.70,8.61,,-0.69,,, NC,, NC
CH4-6,2019-01-03T13:00:00Z,-79.18,54.09,1.70,8.61,,-0.69,,, NC,, NC
CH4-6,2019-01-03T13:10:00Z,-79.18,54.09,1.70,8.61,,-0.70,,, NC,, NC
CH4-6,2019-01-03T13:20:00Z,-79.18,54.09,1.70,8.63,,-0.69,,, NC,, NC
CH4-6,2019-01-03T13:30:00Z,-79.18,54.09,1.70,8.61,,-0.69,,, NC,, NC
CH4-6,2019-01-03T13:40:00Z,-79.18,54.09,1.70,8.59,,-0.69,,, NC,, NC
CH4-6,2019-01-03T13:50:00Z,-79.18,54.09,1.70,8.57,,-0.69,,, NC,, NC
CH4-6,2019-01-03T14:00:00Z,-79.18,54.09,1.70,8.57,,-0.70,,, NC,, NC
CH4-6,2019-01-03T14:10:00Z,-79.18,54.09,1.70,8.57,,-0.69,,, NC,, NC
CH4-6,2019-01-03T14:20:00Z,-79.18,54.09,1.70,8.55,,-0.69,,, NC,, NC
CH4-6,2019-01-03T14:30:00Z,-79.18,54.09,1.70,8.51,,-0.69,,, NC,, NC
CH4-6,2019-01-03T14:40:00Z,-79.18,54.09,1.70,8.50,,-0.69,,, NC,, NC
CH4-6,2019-01-03T14:50:00Z,-79.18,54.09,1.70,8.41,,-0.67,,, NC,, NC
CH4-6,2019-01-03T15:00:00Z,-79.18,54.09,1.70,8.41,,-0.68,,, NC,, NC
CH4-6,2019-01-03T15:10:00Z,-79.18,54.09,1.70,8.43,,-0.69,,, NC,, NC
CH4-6,2019-01-03T15:20:00Z,-79.18,54.09,1.70,8.35,,-0.69,,, NC,, NC
CH4-6,2019-01-03T15:30:00Z,-79.18,54.09,1.70,8.35,,-0.69,,, NC,, NC
CH4-6,2019-01-03T15:40:00Z,-79.18,54.09,1.70,8.35,,-0.70,,, NC,, NC
CH4-6,2019-01-03T15:50:00Z,-79.18,54.09,1.70,8.27,,-0.70,,, NC,, NC
CH4-6,2019-01-03T16:00:00Z,-79.18,54.09,1.70,8.21,,-0.68,,, NC,, NC
CH4-6,2019-01-03T16:10:00Z,-79.18,54.09,1.70,8.21,,-0.69,,, NC,, NC
CH4-6,2019-01-03T16:20:00Z,-79.18,54.09,1.70,8.20,,-0.69,,, NC,, NC
CH4-6,2019-01-03T16:30:00Z,-79.18,54.09,1.70,8.21,,-0.69,,, NC,, NC
CH4-6,2019-01-03T16:40:00Z,-79.18,54.09,1.70,8.23,,-0.69,,, NC,, NC
CH4-6,2019-01-03T16:50:00Z,-79.18,54.09,1.70,8.12,,-0.68,,, NC,, NC
CH4-6,2019-01-03T17:00:00Z,-79.18,54.09,1.70,8.21,,-0.67,,, NC,, NC
CH4-6,2019-01-03T17:10:00Z,-79.18,54.09,1.70,8.30,,-0.68,,, NC,, NC
CH4-6,2019-01-03T17:20:00Z,-79.18,54.09,1.70,8.34,,-0.69,,, NC,, NC
CH4-6,2019-01-03T17:30:00Z,-79.18,54.09,1.70,8.38,,-0.69,,, NC,, NC
CH4-6,2019-01-03T17:40:00Z,-79.18,54.09,1.70,8.45,,-0.69,,, NC,, NC
CH4-6,2019-01-03T17:50:00Z,-79.18,54.09,1.70,8.46,,-0.69,,, NC,, NC
CH4-6,2019-01-03T18:00:00Z,-79.18,54.09,1.70,8.49,,-0.69,,, NC,, NC
CH4-6,2019-01-03T18:10:00Z,-79.18,54.09,1.70,8.54,,-0.69,,, NC,, NC
CH4-6,2019-01-03T18:20:00Z,-79.18,54.09,1.70,8.58,,-0.70,,, NC,, NC
CH4-6,2019-01-03T18:30:00Z,-79.18,54.09,1.70,8.61,,-0.70,,, NC,, NC
CH4-6,2019-01-03T18:40:00Z,-79.18,54.09,1.70,8.58,,-0.70,,, NC,, NC
CH4-6,2019-01-03T18:50:00Z,-79.18,54.09,1.70,8.57,,-0.68,,, NC,, NC
CH4-6,2019-01-03T19:00:00Z,-79.18,54.09,1.70,8.57,,-0.69,,, NC,, NC
CH4-6,2019-01-03T19:10:00Z,-79.18,54.09,1.70,8.56,,-0.69,,, NC,, NC
CH4-6,2019-01-03T19:20:00Z,-79.18,54.09,1.70,8.56,,-0.69,,, NC,, NC
CH4-6,2019-01-03T19:30:00Z,-79.18,54.09,1.70,8.38,,-0.68,,, NC,, NC
CH4-6,2019-01-03T19:40:00Z,-79.18,54.09,1.70,8.32,,-0.68,,, NC,, NC
CH4-6,2019-01-03T19:50:00Z,-79.18,54.09,1.70,8.27,,-0.67,,, NC,, NC
CH4-6,2019-01-03T20:00:00Z,-79.18,54.09,1.70,8.18,,-0.67,,, NC,, NC
CH4-6,2019-01-03T20:10:00Z,-79.18,54.09,1.70,8.25,,-0.67,,, NC,, NC
CH4-6,2019-01-03T20:20:00Z,-79.18,54.09,1.70,8.21,,-0.67,,, NC,, NC
CH4-6,2019-01-03T20:30:00Z,-79.18,54.09,1.70,8.18,,-0.67,,, NC,, NC
CH4-6,2019-01-03T20:40:00Z,-79.18,54.09,1.70,8.25,,-0.67,,, NC,, NC
CH4-6,2019-01-03T20:50:00Z,-79.18,54.09,1.70,8.28,,-0.68,,, NC,, NC
CH4-6,2019-01-03T21:00:00Z,-79.18,54.09,1.70,8.27,,-0.67,,, NC,, NC
CH4-6,2019-01-03T21:10:00Z,-79.18,54.09,1.70,8.15,,-0.67,,, NC,, NC
CH4-6,2019-01-03T21:20:00Z,-79.18,54.09,1.70,8.06,,-0.67,,, NC,, NC
CH4-6,2019-01-03T21:30:00Z,-79.18,54.09,1.70,7.98,,-0.67,,, NC,, NC
CH4-6,2019-01-03T21:40:00Z,-79.18,54.09,1.70,7.93,,-0.67,,, NC,, NC
CH4-6,2019-01-03T21:50:00Z,-79.18,54.09,1.70,8.01,,-0.67,,, NC,, NC
CH4-6,2019-01-03T22:00:00Z,-79.18,54.09,1.70,8.05,,-0.67,,, NC,, NC
CH4-6,2019-01-03T22:10:00Z,-79.18,54.09,1.70,8.12,,-0.67,,, NC,, NC
CH4-6,2019-01-03T22:20:00Z,-79.18,54.09,1.70,8.11,,-0.67,,, NC,, NC
CH4-6,2019-01-03T22:30:00Z,-79.18,54.09,1.70,8.14,,-0.67,,, NC,, NC
CH4-6,2019-01-03T22:40:00Z,-79.18,54.09,1.70,8.10,,-0.65,,, NC,, NC
CH4-6,2019-01-03T22:50:00Z,-79.18,54.09,1.70,8.06,,-0.65,,, NC,, NC
CH4-6,2019-01-03T23:00:00Z,-79.18,54.09,1.70,8.04,,-0.65,,, NC,, NC
CH4-6,2019-01-03T23:10:00Z,-79.18,54.09,1.70,8.15,,-0.67,,, NC,, NC
CH4-6,2019-01-03T23:20:00Z,-79.18,54.09,1.70,8.16,,-0.67,,, NC,, NC
CH4-6,2019-01-03T23:30:00Z,-79.18,54.09,1.70,8.06,,-0.65,,, NC,, NC
CH4-6,2019-01-03T23:40:00Z,-79.18,54.09,1.70,8.00,,-0.65,,, NC,, NC
CH4-6,2019-01-03T23:50:00Z,-79.18,54.09,1.70,8.09,,-0.67,,, NC,, NC
CH4-6,2019-01-04T00:00:00Z,-79.18,54.09,1.70,8.07,,-0.67,,, NC,, NC
CH4-6,2019-01-04T00:10:00Z,-79.18,54.09,1.70,8.13,,-0.67,,, NC,, NC
CH4-6,2019-01-04T00:20:00Z,-79.18,54.09,1.70,8.01,,-0.67,,, NC,, NC
CH4-6,2019-01-04T00:30:00Z,-79.18,54.09,1.70,7.97,,-0.65,,, NC,, NC
CH4-6,2019-01-04T00:40:00Z,-79.18,54.09,1.70,7.81,,-0.65,,, NC,, NC
CH4-6,2019-01-04T00:50:00Z,-79.18,54.09,1.70,7.81,,-0.65,,, NC,, NC
CH4-6,2019-01-04T01:00:00Z,-79.18,54.09,1.70,8.00,,-0.67,,, NC,, NC
CH4-6,2019-01-04T01:10:00Z,-79.18,54.09,1.70,8.01,,-0.67,,, NC,, NC
CH4-6,2019-01-04T01:20:00Z,-79.18,54.09,1.70,7.93,,-0.65,,, NC,, NC
CH4-6,2019-01-04T01:30:00Z,-79.18,54.09,1.70,7.88,,-0.67,,, NC,, NC
CH4-6,2019-01-04T01:40:00Z,-79.18,54.09,1.70,7.91,,-0.67,,, NC,, NC
CH4-6,2019-01-04T01:50:00Z,-79.18,54.09,1.70,7.95,,-0.67,,, NC,, NC
CH4-6,2019-01-04T02:00:00Z,-79.18,54.09,1.70,8.00,,-0.65,,, NC,, NC
CH4-6,2019-01-04T02:10:00Z,-79.18,54.09,1.70,8.01,,-0.67,,, NC,, NC
CH4-6,2019-01-04T02:20:00Z,-79.18,54.09,1.70,8.03,,-0.67,,, NC,, NC
CH4-6,2019-01-04T02:30:00Z,-79.18,54.09,1.70,8.03,,-0.68,,, NC,, NC
CH4-6,2019-01-04T02:40:00Z,-79.18,54.09,1.70,7.97,,-0.68,,, NC,, NC
CH4-6,2019-01-04T02:50:00Z,-79.18,54.09,1.70,7.97,,-0.68,,, NC,, NC
CH4-6,2019-01-04T03:00:00Z,-79.18,54.09,1.70,8.00,,-0.68,,, NC,, NC
CH4-6,2019-01-04T03:10:00Z,-79.18,54.09,1.70,7.92,,-0.68,,, NC,, NC
CH4-6,2019-01-04T03:20:00Z,-79.18,54.09,1.70,7.95,,-0.68,,, NC,, NC
CH4-6,2019-01-04T03:30:00Z,-79.18,54.09,1.70,7.97,,-0.68,,, NC,, NC
CH4-6,2019-01-04T03:40:00Z,-79.18,54.09,1.70,7.94,,-0.68,,, NC,, NC
CH4-6,2019-01-04T03:50:00Z,-79.18,54.09,1.70,7.95,,-0.68,,, NC,, NC
CH4-6,2019-01-04T04:00:00Z,-79.18,54.09,1.70,7.96,,-0.68,,, NC,, NC
CH4-6,2019-01-04T04:10:00Z,-79.18,54.09,1.70,7.88,,-0.68,,, NC,, NC
CH4-6,2019-01-04T04:20:00Z,-79.18,54.09,1.70,7.69,,-0.67,,, NC,, NC
CH4-6,2019-01-04T04:30:00Z,-79.18,54.09,1.70,7.63,,-0.65,,, NC,, NC
CH4-6,2019-01-04T04:40:00Z,-79.18,54.09,1.70,7.83,,-0.67,,, NC,, NC
CH4-6,2019-01-04T04:50:00Z,-79.18,54.09,1.70,7.72,,-0.65,,, NC,, NC
CH4-6,2019-01-04T05:00:00Z,-79.18,54.09,1.70,7.64,,-0.64,,, NC,, NC
CH4-6,2019-01-04T05:10:00Z,-79.18,54.09,1.70,7.54,,-0.64,,, NC,, NC
CH4-6,2019-01-04T05:20:00Z,-79.18,54.09,1.70,7.64,,-0.64,,, NC,, NC
CH4-6,2019-01-04T05:30:00Z,-79.18,54.09,1.70,7.47,,-0.64,,, NC,, NC
CH4-6,2019-01-04T05:40:00Z,-79.18,54.09,1.70,7.57,,-0.64,,, NC,, NC
CH4-6,2019-01-04T05:50:00Z,-79.18,54.09,1.70,7.65,,-0.64,,, NC,, NC
CH4-6,2019-01-04T06:00:00Z,-79.18,54.09,1.70,7.74,,-0.65,,, NC,, NC
CH4-6,2019-01-04T06:10:00Z,-79.18,54.09,1.70,7.96,,-0.65,,, NC,, NC
CH4-6,2019-01-04T06:20:00Z,-79.18,54.09,1.70,8.02,,-0.67,,, NC,, NC
CH4-6,2019-01-04T06:30:00Z,-79.18,54.09,1.70,8.06,,-0.68,,, NC,, NC
CH4-6,2019-01-04T06:40:00Z,-79.18,54.09,1.70,7.99,,-0.67,,, NC,, NC
CH4-6,2019-01-04T06:50:00Z,-79.18,54.09,1.70,8.08,,-0.68,,, NC,, NC
CH4-6,2019-01-04T07:00:00Z,-79.18,54.09,1.70,8.14,,-0.67,,, NC,, NC
CH4-6,2019-01-04T07:10:00Z,-79.18,54.09,1.70,7.34,,-0.63,,, NC,, NC
CH4-6,2019-01-04T07:20:00Z,-79.18,54.09,1.70,7.19,,-0.61,,, NC,, NC
CH4-6,2019-01-04T07:30:00Z,-79.18,54.09,1.70,7.55,,-0.64,,, NC,, NC
CH4-6,2019-01-04T07:40:00Z,-79.18,54.09,1.70,7.63,,-0.64,,, NC,, NC
CH4-6,2019-01-04T07:50:00Z,-79.18,54.09,1.70,7.66,,-0.64,,, NC,, NC
CH4-6,2019-01-04T08:00:00Z,-79.18,54.09,1.70,7.78,,-0.65,,, NC,, NC
CH4-6,2019-01-04T08:10:00Z,-79.18,54.09,1.70,7.85,,-0.65,,, NC,, NC
CH4-6,2019-01-04T08:20:00Z,-79.18,54.09,1.70,7.77,,-0.65,,, NC,, NC
CH4-6,2019-01-04T08:30:00Z,-79.18,54.09,1.70,7.82,,-0.64,,, NC,, NC
CH4-6,2019-01-04T08:40:00Z,-79.18,54.09,1.70,7.84,,-0.65,,, NC,, NC
CH4-6,2019-01-04T08:50:00Z,-79.18,54.09,1.70,7.88,,-0.65,,, NC,, NC
CH4-6,2019-01-04T09:00:00Z,-79.18,54.09,1.70,7.95,,-0.65,,, NC,, NC
CH4-6,2019-01-04T09:10:00Z,-79.18,54.09,1.70,7.99,,-0.67,,, NC,, NC
CH4-6,2019-01-04T09:20:00Z,-79.18,54.09,1.70,8.01,,-0.67,,, NC,, NC
CH4-6,2019-01-04T09:30:00Z,-79.18,54.09,1.70,8.03,,-0.65,,, NC,, NC
CH4-6,2019-01-04T09:40:00Z,-79.18,54.09,1.70,7.31,,-0.62,,, NC,, NC
CH4-6,2019-01-04T09:50:00Z,-79.18,54.09,1.70,7.28,,-0.62,,, NC,, NC
CH4-6,2019-01-04T10:00:00Z,-79.18,54.09,1.70,7.47,,-0.62,,, NC,, NC
CH4-6,2019-01-04T10:10:00Z,-79.18,54.09,1.70,7.60,,-0.63,,, NC,, NC
CH4-6,2019-01-04T10:20:00Z,-79.18,54.09,1.70,7.87,,-0.65,,, NC,, NC
CH4-6,2019-01-04T10:30:00Z,-79.18,54.09,1.70,7.26,,-0.62,,, NC,, NC
CH4-6,2019-01-04T10:40:00Z,-79.18,54.09,1.70,7.58,,-0.64,,, NC,, NC
CH4-6,2019-01-04T10:50:00Z,-79.18,54.09,1.70,7.71,,-0.64,,, NC,, NC
CH4-6,2019-01-04T11:00:00Z,-79.18,54.09,1.70,7.57,,-0.64,,, NC,, NC
CH4-6,2019-01-04T11:10:00Z,-79.18,54.09,1.70,7.68,,-0.63,,, NC,, NC
CH4-6,2019-01-04T11:20:00Z,-79.18,54.09,1.70,7.88,,-0.65,,, NC,, NC
CH4-6,2019-01-04T11:30:00Z,-79.18,54.09,1.70,8.01,,-0.65,,, NC,, NC
CH4-6,2019-01-04T11:40:00Z,-79.18,54.09,1.70,8.06,,-0.67,,, NC,, NC
CH4-6,2019-01-04T11:50:00Z,-79.18,54.09,1.70,7.54,,-0.64,,, NC,, NC
CH4-6,2019-01-04T12:00:00Z,-79.18,54.09,1.70,7.54,,-0.64,,, NC,, NC
CH4-6,2019-01-04T12:10:00Z,-79.18,54.09,1.70,7.45,,-0.63,,, NC,, NC
CH4-6,2019-01-04T12:20:00Z,-79.18,54.09,1.70,7.39,,-0.62,,, NC,, NC
CH4-6,2019-01-04T12:30:00Z,-79.18,54.09,1.70,7.42,,-0.62,,, NC,, NC
CH4-6,2019-01-04T12:40:00Z,-79.18,54.09,1.70,7.48,,-0.63,,, NC,, NC
CH4-6,2019-01-04T12:50:00Z,-79.18,54.09,1.70,7.37,,-0.62,,, NC,, NC
CH4-6,2019-01-04T13:00:00Z,-79.18,54.09,1.70,7.36,,-0.63,,, NC,, NC
CH4-6,2019-01-04T13:10:00Z,-79.18,54.09,1.70,7.49,,-0.63,,, NC,, NC
CH4-6,2019-01-04T13:20:00Z,-79.18,54.09,1.70,7.40,,-0.62,,, NC,, NC
CH4-6,2019-01-04T13:30:00Z,-79.18,54.09,1.70,7.50,,-0.63,,, NC,, NC
CH4-6,2019-01-04T13:40:00Z,-79.18,54.09,1.70,7.40,,-0.62,,, NC,, NC
CH4-6,2019-01-04T13:50:00Z,-79.18,54.09,1.70,7.32,,-0.62,,, NC,, NC
CH4-6,2019-01-04T14:00:00Z,-79.18,54.09,1.70,7.35,,-0.62,,, NC,, NC
CH4-6,2019-01-04T14:10:00Z,-79.18,54.09,1.70,7.32,,-0.63,,, NC,, NC
CH4-6,2019-01-04T14:20:00Z,-79.18,54.09,1.70,7.68,,-0.64,,, NC,, NC
CH4-6,2019-01-04T14:30:00Z,-79.18,54.09,1.70,7.75,,-0.65,,, NC,, NC
CH4-6,2019-01-04T14:40:00Z,-79.18,54.09,1.70,7.69,,-0.64,,, NC,, NC
CH4-6,2019-01-04T14:50:00Z,-79.18,54.09,1.70,7.65,,-0.64,,, NC,, NC
CH4-6,2019-01-04T15:00:00Z,-79.18,54.09,1.70,7.47,,-0.64,,, NC,, NC
CH4-6,2019-01-04T15:10:00Z,-79.18,54.09,1.70,7.55,,-0.64,,, NC,, NC
CH4-6,2019-01-04T15:20:00Z,-79.18,54.09,1.70,7.59,,-0.64,,, NC,, NC
CH4-6,2019-01-04T15:30:00Z,-79.18,54.09,1.70,7.42,,-0.63,,, NC,, NC
CH4-6,2019-01-04T15:40:00Z,-79.18,54.09,1.70,7.38,,-0.63,,, NC,, NC
CH4-6,2019-01-04T15:50:00Z,-79.18,54.09,1.70,7.57,,-0.64,,, NC,, NC
CH4-6,2019-01-04T16:00:00Z,-79.18,54.09,1.70,7.55,,-0.64,,, NC,, NC
CH4-6,2019-01-04T16:10:00Z,-79.18,54.09,1.70,7.63,,-0.64,,, NC,, NC
CH4-6,2019-01-04T16:20:00Z,-79.18,54.09,1.70,7.64,,-0.64,,, NC,, NC
CH4-6,2019-01-04T16:30:00Z,-79.18,54.09,1.70,7.65,,-0.64,,, NC,, NC
CH4-6,2019-01-04T16:40:00Z,-79.18,54.09,1.70,7.29,,-0.63,,, NC,, NC
CH4-6,2019-01-04T16:50:00Z,-79.18,54.09,1.70,7.27,,-0.63,,, NC,, NC
CH4-6,2019-01-04T17:00:00Z,-79.18,54.09,1.70,7.08,,-0.65,,, NC,, NC
CH4-6,2019-01-04T17:10:00Z,-79.18,54.09,1.70,7.01,,-0.64,,, NC,, NC
CH4-6,2019-01-04T17:20:00Z,-79.18,54.09,1.70,7.10,,-0.64,,, NC,, NC
CH4-6,2019-01-04T17:30:00Z,-79.18,54.09,1.70,7.01,,-0.64,,, NC,, NC
CH4-6,2019-01-04T17:40:00Z,-79.18,54.09,1.70,6.91,,-0.62,,, NC,, NC
CH4-6,2019-01-04T17:50:00Z,-79.18,54.09,1.70,7.14,,-0.63,,, NC,, NC
CH4-6,2019-01-04T18:00:00Z,-79.18,54.09,1.70,7.34,,-0.63,,, NC,, NC
CH4-6,2019-01-04T18:10:00Z,-79.18,54.09,1.70,7.38,,-0.63,,, NC,, NC
CH4-6,2019-01-04T18:20:00Z,-79.18,54.09,1.70,7.46,,-0.64,,, NC,, NC
CH4-6,2019-01-04T18:30:00Z,-79.18,54.09,1.70,7.37,,-0.64,,, NC,, NC
CH4-6,2019-01-04T18:40:00Z,-79.18,54.09,1.70,7.28,,-0.63,,, NC,, NC
CH4-6,2019-01-04T18:50:00Z,-79.18,54.09,1.70,7.20,,-0.63,,, NC,, NC
CH4-6,2019-01-04T19:00:00Z,-79.18,54.09,1.70,7.14,,-0.62,,, NC,, NC
CH4-6,2019-01-04T19:10:00Z,-79.18,54.09,1.70,7.04,,-0.62,,, NC,, NC
CH4-6,2019-01-04T19:20:00Z,-79.18,54.09,1.70,7.03,,-0.62,,, NC,, NC
CH4-6,2019-01-04T19:30:00Z,-79.18,54.09,1.70,7.04,,-0.62,,, NC,, NC
CH4-6,2019-01-04T19:40:00Z,-79.18,54.09,1.70,7.09,,-0.62,,, NC,, NC
CH4-6,2019-01-04T19:50:00Z,-79.18,54.09,1.70,7.13,,-0.62,,, NC,, NC
CH4-6,2019-01-04T20:00:00Z,-79.18,54.09,1.70,7.17,,-0.63,,, NC,, NC
CH4-6,2019-01-04T20:10:00Z,-79.18,54.09,1.70,6.87,,-0.63,,, NC,, NC
CH4-6,2019-01-04T20:20:00Z,-79.18,54.09,1.70,6.89,,-0.62,,, NC,, NC
CH4-6,2019-01-04T20:30:00Z,-79.18,54.09,1.70,6.93,,-0.62,,, NC,, NC
CH4-6,2019-01-04T20:40:00Z,-79.18,54.09,1.70,6.95,,-0.63,,, NC,, NC
CH4-6,2019-01-04T20:50:00Z,-79.18,54.09,1.70,6.94,,-0.62,,, NC,, NC
CH4-6,2019-01-04T21:00:00Z,-79.18,54.09,1.70,6.89,,-0.62,,, NC,, NC
CH4-6,2019-01-04T21:10:00Z,-79.18,54.09,1.70,6.94,,-0.62,,, NC,, NC
CH4-6,2019-01-04T21:20:00Z,-79.18,54.09,1.70,6.96,,-0.62,,, NC,, NC
CH4-6,2019-01-04T21:30:00Z,-79.18,54.09,1.70,6.90,,-0.63,,, NC,, NC
CH4-6,2019-01-04T21:40:00Z,-79.18,54.09,1.70,6.84,,-0.63,,, NC,, NC
CH4-6,2019-01-04T21:50:00Z,-79.18,54.09,1.70,6.89,,-0.62,,, NC,, NC
CH4-6,2019-01-04T22:00:00Z,-79.18,54.09,1.70,6.65,,-0.61,,, NC,, NC
CH4-6,2019-01-04T22:10:00Z,-79.18,54.09,1.70,6.77,,-0.61,,, NC,, NC
CH4-6,2019-01-04T22:20:00Z,-79.18,54.09,1.70,6.80,,-0.63,,, NC,, NC
CH4-6,2019-01-04T22:30:00Z,-79.18,54.09,1.70,6.68,,-0.62,,, NC,, NC
CH4-6,2019-01-04T22:40:00Z,-79.18,54.09,1.70,6.61,,-0.61,,, NC,, NC
CH4-6,2019-01-04T22:50:00Z,-79.18,54.09,1.70,6.54,,-0.61,,, NC,, NC
CH4-6,2019-01-04T23:00:00Z,-79.18,54.09,1.70,6.54,,-0.61,,, NC,, NC
CH4-6,2019-01-04T23:10:00Z,-79.18,54.09,1.70,6.45,,-0.60,,, NC,, NC
CH4-6,2019-01-04T23:20:00Z,-79.18,54.09,1.70,6.44,,-0.61,,, NC,, NC
CH4-6,2019-01-04T23:30:00Z,-79.18,54.09,1.70,6.42,,-0.61,,, NC,, NC
CH4-6,2019-01-04T23:40:00Z,-79.18,54.09,1.70,6.44,,-0.62,,, NC,, NC
CH4-6,2019-01-04T23:50:00Z,-79.18,54.09,1.70,6.56,,-0.61,,, NC,, NC
CH4-6,2019-01-05T00:00:00Z,-79.18,54.09,1.70,6.63,,-0.61,,, NC,, NC
CH4-6,2019-01-05T00:10:00Z,-79.18,54.09,1.70,6.64,,-0.61,,, NC,, NC
CH4-6,2019-01-05T00:20:00Z,-79.18,54.09,1.70,6.68,,-0.61,,, NC,, NC
CH4-6,2019-01-05T00:30:00Z,-79.18,54.09,1.70,6.71,,-0.61,,, NC,, NC
CH4-6,2019-01-05T00:40:00Z,-79.18,54.09,1.70,6.73,,-0.61,,, NC,, NC
CH4-6,2019-01-05T00:50:00Z,-79.18,54.09,1.70,6.73,,-0.61,,, NC,, NC
CH4-6,2019-01-05T01:00:00Z,-79.18,54.09,1.70,6.77,,-0.60,,, NC,, NC
CH4-6,2019-01-05T01:10:00Z,-79.18,54.09,1.70,6.80,,-0.60,,, NC,, NC
CH4-6,2019-01-05T01:20:00Z,-79.18,54.09,1.70,6.96,,-0.61,,, NC,, NC
CH4-6,2019-01-05T01:30:00Z,-79.18,54.09,1.70,6.86,,-0.61,,, NC,, NC
CH4-6,2019-01-05T01:40:00Z,-79.18,54.09,1.70,6.95,,-0.62,,, NC,, NC
CH4-6,2019-01-05T01:50:00Z,-79.18,54.09,1.70,6.92,,-0.61,,, NC,, NC
CH4-6,2019-01-05T02:00:00Z,-79.18,54.09,1.70,6.95,,-0.61,,, NC,, NC
CH4-6,2019-01-05T02:10:00Z,-79.18,54.09,1.70,7.01,,-0.62,,, NC,, NC
CH4-6,2019-01-05T02:20:00Z,-79.18,54.09,1.70,6.99,,-0.61,,, NC,, NC
CH4-6,2019-01-05T02:30:00Z,-79.18,54.09,1.70,7.05,,-0.62,,, NC,, NC
CH4-6,2019-01-05T02:40:00Z,-79.18,54.09,1.70,7.30,,-0.62,,, NC,, NC
CH4-6,2019-01-05T02:50:00Z,-79.18,54.09,1.70,7.17,,-0.62,,, NC,, NC
CH4-6,2019-01-05T03:00:00Z,-79.18,54.09,1.70,6.98,,-0.62,,, NC,, NC
CH4-6,2019-01-05T03:10:00Z,-79.18,54.09,1.70,6.95,,-0.62,,, NC,, NC
CH4-6,2019-01-05T03:20:00Z,-79.18,54.09,1.70,6.93,,-0.62,,, NC,, NC
CH4-6,2019-01-05T03:30:00Z,-79.18,54.09,1.70,6.93,,-0.62,,, NC,, NC
CH4-6,2019-01-05T03:40:00Z,-79.18,54.09,1.70,6.93,,-0.61,,, NC,, NC
CH4-6,2019-01-05T03:50:00Z,-79.18,54.09,1.70,6.91,,-0.62,,, NC,, NC
CH4-6,2019-01-05T04:00:00Z,-79.18,54.09,1.70,6.92,,-0.62,,, NC,, NC
CH4-6,2019-01-05T04:10:00Z,-79.18,54.09,1.70,6.90,,-0.62,,, NC,, NC
CH4-6,2019-01-05T04:20:00Z,-79.18,54.09,1.70,6.82,,-0.61,,, NC,, NC
CH4-6,2019-01-05T04:30:00Z,-79.18,54.09,1.70,6.77,,-0.61,,, NC,, NC
CH4-6,2019-01-05T04:40:00Z,-79.18,54.09,1.70,6.71,,-0.62,,, NC,, NC
CH4-6,2019-01-05T04:50:00Z,-79.18,54.09,1.70,6.77,,-0.61,,, NC,, NC
CH4-6,2019-01-05T05:00:00Z,-79.18,54.09,1.70,6.59,,-0.61,,, NC,, NC
CH4-6,2019-01-05T05:10:00Z,-79.18,54.09,1.70,6.20,,-0.58,,, NC,, NC
CH4-6,2019-01-05T05:20:00Z,-79.18,54.09,1.70,6.32,,-0.60,,, NC,, NC
CH4-6,2019-01-05T05:30:00Z,-79.18,54.09,1.70,6.54,,-0.61,,, NC,, NC
CH4-6,2019-01-05T05:40:00Z,-79.18,54.09,1.70,6.63,,-0.61,,, NC,, NC
CH4-6,2019-01-05T05:50:00Z,-79.18,54.09,1.70,6.30,,-0.58,,, NC,, NC
CH4-6,2019-01-05T06:00:00Z,-79.18,54.09,1.70,6.51,,-0.60,,, NC,, NC